Location: Antoign�
(47.0844°N, 0.1131°W)
Time: 20:37:36
(UTC+00:00)

YAOGAN 1 - Pass Details

Date: 03 March 2021
Orbit: 618 x 620 km, 97.9° (Epoch: 14 April)

Event Time Altitude Azimuth Distance (km) Brightness Sun altitude
Rises 19:14:03 0° 185° (S) 2,884 6.0 -15.3°
Reaches altitude 10° 19:16:21 10° 193° (SSW) 1,983 5.2 -15.6°
Maximum altitude 19:20:23 38° 262° (W) 953 4.1 -16.3°
Drops below altitude 10° 19:24:27 10° 332° (NNW) 1,999 5.7 -17.0°
Sets 19:26:47 0° 340° (NNW) 2,910 6.4 -17.4°
